Location: Hilton Head Island
(32.2163°N, 80.7526°W)
Time: 11:37:05
(UTC-04:00)

S-56A Canister/Altair - Pass Details

Date: 22 February 2026
Orbit: 633 x 2484 km, 38.9° (Epoch: 10 March)

Event Time Altitude Azimuth Distance (km) Brightness Sun altitude
Exits shadow 03:33:19 50° 125° (SE) 2,061 9.6 -43.7°
Drops below altitude 10° 03:41:55 10° 121° (ESE) 4,535 11.8 -42.0°
Sets 03:46:03 0° 120° (ESE) 5,758 12.5 -41.1°
